Theta_e
318 318 317 318 320 325 326 327 326 326 328 327 326 324 322 321 318 318 318 318 319 318 317 317 315 316 315 315 315 316 315 316 315 310 309 308 309 309 309 310 312 311 309
317 317 314 316 320 323 325 325 324 325 322 320 319 318 316 314 313 313 313 314 313 311 310 310 310 310 309 309 309 310 310 311 309 309 308 308 308 310 311 313 312 310 309
315 316 316 313 320 321 323 322 319 317 315 312 312 311 310 310 310 309 309 308 308 307 307 307 306 307 306 307 308 309 309 308 308 308 308 310 311 310 313 312 312 311 310
312 314 315 315 317 320 320 317 313 310 308 307 306 306 307 307 307 306 306 306 305 304 304 304 304 305 305 306 308 308 307 308 310 310 309 309 310 311 311 312 313 312 310
311 312 314 315 316 320 316 313 308 305 304 305 305 305 306 306 306 306 306 306 305 305 305 304 304 305 305 305 305 308 308 308 308 308 309 310 313 312 312 312 311 312 311
309 311 313 314 317 316 311 307 304 303 303 303 303 304 304 304 304 305 304 304 305 305 304 304 304 304 305 306 307 307 306 307 308 307 312 312 311 310 310 310 311 312 310
309 311 313 315 317 311 306 303 302 302 302 302 302 303 303 303 303 303 303 302 302 302 302 302 303 303 302 303 305 308 309 310 311 310 310 310 309 309 309 309 309 310 308
309 311 314 316 311 304 302 301 301 301 301 301 301 300 301 301 301 301 300 300 301 301 303 303 302 303 304 306 308 309 308 309 310 309 307 306 306 307 308 309 310 310 307
309 312 314 313 306 301 301 300 300 300 300 300 300 300 300 300 302 302 303 303 303 304 304 305 306 306 306 307 308 307 306 306 304 304 303 305 304 303 304 307 308 309 307
308 312 309 305 301 301 300 299 299 299 300 300 300 302 301 302 303 303 303 303 305 305 304 303 304 304 308 309 309 309 308 307 307 305 305 306 306 303 302 302 302 304 305
308 307 303 301 300 299 299 299 299 299 300 301 303 303 303 303 302 302 303 304 305 305 305 304 303 304 305 306 307 307 307 307 307 307 308 306 304 303 300 299 299 299 300
305 302 300 300 299 299 299 299 300 302 304 304 304 303 303 303 302 303 304 305 306 305 303 302 302 303 304 306 306 306 306 307 306 305 304 304 303 302 299 298 297 297 297
301 300 299 299 299 299 300 303 305 305 304 305 305 304 304 304 303 303 304 304 304 304 304 304 304 304 306 305 306 306 307 306 306 306 305 304 303 301 299 298 297 296 296
300 300 300 300 300 302 303 305 304 304 304 304 304 304 304 303 303 305 306 305 304 305 305 305 306 306 305 306 306 307 307 306 305 305 304 302 301 300 299 299 298 298 297
300 300 300 301 303 301 302 303 302 302 303 303 302 302 302 302 301 302 304 304 304 305 305 306 306 306 307 307 306 307 305 305 304 303 301 300 299 298 298 298 297 297 297
301 301 301 304 304 303 302 299 300 300 300 300 301 301 301 301 302 302 303 303 303 304 305 305 306 306 306 306 306 306 305 303 303 302 300 299 298 298 297 297 297 296 296
300 301 303 304 304 304 303 302 301 299 300 300 300 301 301 301 301 302 302 303 304 304 305 305 305 305 306 305 304 306 304 302 302 300 300 298 297 297 297 297 297 296 296
301 304 305 305 304 304 303 303 303 302 302 301 300 301 301 301 301 302 303 304 304 304 304 304 305 304 304 305 304 305 304 302 300 300 300 298 297 297 297 297 297 297 297
303 306 306 305 304 304 304 303 303 303 303 302 301 300 300 300 300 301 302 303 303 303 303 303 303 303 303 304 303 304 304 302 301 300 301 301 298 298 298 297 297 298 297
306 306 305 304 305 304 304 305 305 304 304 303 301 301 300 300 300 300 301 302 302 302 302 302 303 303 303 303 303 303 304 303 302 302 301 301 300 300 299 299 299 301 300
304 305 305 305 305 305 304 303 301 301 299 298 298 297 298 298 299 299 301 301 301 301 301 302 302 303 302 302 302 303 303 303 302 303 302 302 302 302 302 302 302 303 301
305 305 306 305 304 303 301 301 301 298 297 297 297 297 298 298 299 300 300 300 301 301 302 302 302 301 302 302 302 302 302 303 303 303 303 303 303 303 303 304 303 303 303
306 305 305 304 302 301 301 301 300 299 299 299 298 298 298 298 298 298 299 299 300 301 301 301 301 301 301 301 301 302 303 303 303 303 303 303 303 303 303 303 303 303 303
305 304 303 303 302 301 301 300 299 299 299 299 298 298 298 297 297 297 298 298 299 299 300 300 300 300 300 300 301 301 302 303 303 303 303 303 303 303 303 303 302 303 303
304 304 303 301 301 300 300 300 299 299 299 299 298 298 298 297 297 297 296 296 296 297 298 299 298 299 299 299 299 301 301 302 303 303 303 303 303 303 303 303 303 303 303
303 303 301 300 300 300 300 299 299 299 299 298 298 298 298 297 297 296 296 295 295 295 295 296 297 298 298 298 299 300 301 301 302 303 303 303 303 303 303 303 303 303 303
Wind_Speed
19 16 21 23 37 23 15 13 14 17 13 12 12 13 13 14 15 14 13 14 9 8 6 4 9 7 10 11 11 7 10 7 5 8 10 14 9 8 5 6 7 7 10
17 19 19 22 32 21 21 17 16 13 11 12 12 10 11 11 12 10 9 8 8 10 11 12 13 12 14 16 17 19 16 15 13 11 15 11 8 6 5 4 4 4 9
21 19 17 20 22 18 16 14 12 12 12 11 10 11 11 10 8 8 8 11 15 17 18 21 20 20 22 20 19 19 15 18 14 17 6 14 10 8 8 6 5 7 5
20 22 17 17 21 11 12 11 11 12 10 11 12 11 10 9 9 9 13 18 22 25 25 24 22 21 18 19 17 15 21 15 13 13 10 9 11 10 4 6 11 8 6
20 20 19 17 18 10 9 9 10 12 12 11 12 13 15 14 13 14 18 19 21 22 23 25 24 21 14 15 16 13 16 13 13 12 11 14 5 5 1 1 1 9 8
20 22 21 18 12 8 9 9 12 14 15 16 16 19 23 24 19 16 17 19 17 19 19 18 20 22 16 17 19 11 14 16 17 15 8 13 12 13 9 10 5 11 6
19 22 19 15 6 9 10 11 14 18 19 21 22 23 21 20 18 17 17 19 20 18 18 19 22 22 20 17 16 13 20 21 18 19 17 13 12 8 7 6 3 3 9
16 18 17 4 7 10 11 15 18 19 21 22 20 18 19 17 16 17 17 18 19 18 15 14 20 18 13 5 6 14 15 15 14 18 16 13 13 10 7 9 9 10 13
15 17 11 10 12 13 15 19 20 22 21 19 18 18 16 14 15 10 13 10 10 12 11 12 11 11 7 2 16 20 15 14 15 15 16 16 17 17 17 11 14 8 10
12 12 15 13 16 19 20 21 21 20 18 20 19 15 14 12 10 10 12 12 12 13 16 15 12 12 15 15 13 15 16 14 13 10 9 9 12 23 21 17 12 10 7
10 12 14 18 22 22 23 21 18 18 20 17 16 15 14 13 12 9 6 2 9 13 14 12 10 12 15 16 15 16 15 13 16 15 11 16 21 19 21 18 16 15 10
12 17 21 22 23 23 24 21 18 14 12 14 17 16 16 14 11 14 17 14 15 17 15 16 16 15 17 15 15 11 13 12 18 19 20 19 18 15 19 24 22 20 19
21 23 24 24 24 24 20 13 11 13 15 14 15 14 12 13 18 20 19 20 19 15 11 15 13 14 21 19 21 19 16 15 15 17 19 17 17 14 19 19 23 29 27
25 24 23 25 26 19 11 11 15 16 16 17 17 17 16 15 13 13 13 14 12 14 15 14 17 20 20 23 18 18 19 22 20 18 18 16 17 17 20 18 19 19 22
25 24 25 21 13 22 22 20 22 25 18 18 19 17 18 18 17 16 15 17 21 17 18 18 16 14 16 21 20 20 17 23 23 18 18 18 18 20 22 21 23 21 19
25 24 22 18 22 23 26 29 29 28 27 26 24 21 20 19 20 20 18 22 23 21 18 18 21 22 24 21 19 22 21 28 22 21 20 21 21 20 21 23 22 23 21
27 30 19 27 26 24 25 25 25 28 28 25 24 23 20 17 18 18 21 18 23 21 17 19 24 24 23 23 19 20 23 27 23 23 23 23 22 22 22 22 22 24 26
25 20 23 27 25 24 22 21 21 20 20 21 19 20 21 21 20 16 3 14 17 20 20 20 25 23 21 22 20 22 22 30 26 21 22 25 23 24 24 24 23 23 25
20 13 25 25 22 19 21 21 21 20 20 19 18 17 20 23 23 23 22 21 22 21 24 22 22 21 20 24 24 22 26 27 24 24 24 22 27 27 28 27 26 28 28
9 26 27 24 19 20 19 19 17 18 18 20 21 19 18 20 21 21 23 23 23 23 23 22 26 24 24 21 20 20 22 24 21 20 19 24 25 24 22 23 21 25 27
25 22 23 21 20 19 19 19 19 20 22 23 24 23 21 21 21 22 23 24 24 23 22 22 24 25 23 23 21 20 20 23 19 19 18 18 21 21 20 18 18 20 31
23 23 21 21 21 21 21 20 20 22 23 24 23 21 21 24 24 25 25 26 24 23 24 25 26 22 23 21 22 21 18 20 19 19 18 18 20 18 17 21 19 19 23
23 23 21 23 23 21 20 20 20 22 23 23 22 22 24 25 26 26 25 25 26 27 27 27 25 24 22 22 21 18 18 18 19 20 19 20 20 21 22 22 21 20 18
23 23 24 21 21 21 21 22 23 23 22 23 23 23 24 24 25 26 26 25 26 26 26 28 30 27 24 22 20 19 20 19 20 19 18 19 20 21 22 23 23 22 22
24 22 23 22 22 22 21 21 22 22 22 22 23 23 23 23 24 24 24 25 26 27 27 26 27 28 28 26 24 23 22 21 21 20 20 20 21 21 21 22 22 21 21
22 22 23 21 21 21 21 21 21 21 22 22 22 22 22 22 23 23 23 25 25 25 25 26 27 27 26 28 28 27 26 24 23 21 20 20 21 21 21 22 21 22 22
Wind_Direction
343 351 357 5 331 354 360 357 1 9 14 3 356 359 352 349 349 345 340 337 343 358 9 62 56 44 48 51 69 88 119 119 116 104 115 144 146 170 195 218 214 227 199
328 334 336 356 332 347 349 8 357 3 5 5 7 0 360 0 358 9 18 44 65 62 68 73 76 85 75 79 79 61 73 82 107 105 133 140 167 165 219 213 209 195 175
324 318 319 341 318 340 344 355 4 15 19 18 16 16 14 16 24 42 72 81 84 86 86 83 84 87 84 84 78 84 71 101 108 121 137 156 174 186 182 198 207 201 207
320 313 305 315 316 326 345 6 15 28 31 31 31 33 37 39 51 67 83 88 89 88 87 87 85 84 87 97 87 86 102 109 111 101 110 158 165 199 187 194 204 209 120
313 303 304 301 306 338 8 18 32 39 44 47 48 49 57 63 74 85 88 85 85 83 83 84 84 78 72 86 101 97 99 112 129 156 187 205 118 87 123 168 72 123 102
306 296 300 301 318 15 37 38 51 58 61 62 64 68 68 75 81 79 81 82 81 82 83 80 87 88 85 83 85 97 130 132 162 211 97 70 41 28 25 7 14 113 137
303 296 290 300 4 47 55 64 70 75 76 66 71 75 75 77 79 79 85 83 80 85 87 91 89 99 107 104 106 78 71 74 76 85 78 67 61 43 11 15 36 14 75
298 291 281 8 67 72 79 87 84 81 75 73 76 76 78 76 82 81 86 90 85 91 91 102 108 105 111 134 122 94 78 80 74 85 83 72 56 27 360 295 262 139 98
302 305 311 83 82 93 95 91 88 85 80 77 73 75 72 78 87 66 63 78 96 68 63 69 59 69 58 128 135 114 112 106 102 98 99 80 59 37 33 27 18 146 117
306 332 65 88 109 104 100 96 93 88 83 83 75 72 75 91 76 73 63 78 71 79 67 64 56 44 49 81 114 126 133 145 130 117 107 98 76 54 43 44 38 39 33
314 74 84 103 106 109 106 99 96 96 95 93 86 68 70 65 68 43 19 78 87 90 84 76 68 78 87 84 76 71 65 77 97 106 104 99 74 56 52 52 58 64 55
97 92 103 108 109 109 109 110 110 103 88 82 78 74 65 58 60 61 71 73 87 83 77 85 84 83 80 68 59 66 83 89 86 81 73 66 67 66 72 67 70 74 73
100 106 109 108 111 118 115 107 98 99 97 97 83 80 66 72 69 71 77 86 86 86 92 97 83 89 79 69 70 77 87 89 88 82 80 73 75 82 86 82 73 70 74
111 112 109 114 122 124 89 79 96 89 82 78 70 63 57 47 48 61 72 76 83 87 77 60 65 72 74 69 68 66 67 75 72 74 77 76 75 74 81 80 73 71 74
113 112 114 122 96 82 79 78 70 67 69 73 65 68 72 67 59 62 59 57 60 69 83 83 80 75 70 70 57 63 69 77 70 69 75 72 74 72 70 78 78 73 62
115 111 121 123 108 102 92 79 80 82 81 80 79 79 78 78 72 71 78 91 80 74 74 73 63 63 66 56 56 63 57 76 64 73 71 71 73 72 72 71 71 71 66
119 134 145 114 110 110 107 100 92 79 76 77 77 74 72 71 74 76 77 96 81 75 74 61 64 55 63 66 58 59 68 70 72 68 67 80 82 76 72 71 72 74 71
141 148 123 115 115 111 115 124 109 102 95 87 81 78 72 64 56 51 93 76 81 92 85 71 68 68 57 68 52 62 71 76 75 75 72 77 79 77 75 72 70 74 77
144 145 116 116 112 124 109 108 109 107 106 104 100 87 82 73 60 55 58 64 66 60 67 75 71 68 58 69 61 63 71 83 84 79 70 82 85 84 82 81 81 81 78
126 113 112 124 132 116 112 104 95 86 81 70 62 75 77 67 64 60 59 60 60 60 63 61 67 67 68 66 68 64 67 83 90 86 80 90 89 89 90 83 86 87 86
120 129 125 123 114 106 95 90 92 91 85 81 73 64 68 71 67 65 62 58 59 59 60 63 64 65 65 67 66 68 71 79 80 82 77 88 113 95 87 83 83 100 107
129 128 121 110 106 102 102 103 101 97 95 92 85 76 72 70 68 65 62 58 58 58 58 62 62 62 58 61 74 69 71 77 85 84 82 80 88 104 104 93 88 81 98
124 117 113 106 106 114 109 104 99 94 90 85 81 75 70 68 66 64 63 62 61 60 57 55 61 61 63 63 59 60 70 75 74 78 81 81 79 83 84 83 80 80 76
119 116 120 121 114 109 104 99 95 92 92 88 83 78 74 71 70 68 66 64 64 64 64 64 61 60 64 70 66 59 67 78 86 84 79 85 86 83 85 86 86 83 80
127 123 114 116 113 114 115 107 101 97 94 89 86 82 79 77 73 71 69 68 67 66 64 63 62 62 63 65 66 71 74 76 85 84 87 88 87 86 83 83 83 85 90
123 120 120 121 118 115 112 108 104 101 95 90 86 84 82 79 76 73 70 71 70 67 65 64 63 65 68 66 71 76 74 72 70 81 86 82 82 84 83 83 82 78 73